Tracking 28348 objects as of 9-Dec-2023
HD Live streaming from Space Station
objects crossing your sky now

STARLINK-1916

Track STARLINK-1916 now!
10-day predictions
STARLINK-1916 is classified as:


NORAD ID: 46766
Int'l Code: 2020-074AD
Perigee: 553.4 km
Apogee: 555.2 km
Inclination: 53.1 °
Period: 95.6 minutes
Semi major axis: 6925 km
RCS: Unknown
Launch date: October 24, 2020
Source: United States (US)
Launch site: AIR FORCE EASTERN TEST RANGE (AFETR)
Your satellite tracking list
Your tracking list is empty




NASA's NSSDC Master Catalog

Two Line Element Set (TLE):
1 46766U 20074AD  23342.46864754 -.00001260  00000-0 -65653-4 0  9990
2 46766  53.0554  67.7146 0001287  81.0614 279.0521 15.06412945172274
Source of the keplerian elements: AFSPC